Time,TemperatureF,DewpointF,PressureIn,WindDirection,WindDirectionDegrees,WindSpeedMPH,WindSpeedGustMPH,Humidity,HourlyPrecipIn,Conditions,Clouds,dailyrainin,SoftwareType,DateUTC
2013-08-13 00:01:00,68.4,68.0,29.93,WSW,247,3.5,6.0,99,0.00,,,0.00,Rainwise IP-100,2013-08-13 04:01:00,
2013-08-13 00:06:00,68.6,68.0,29.93,WSW,247,3.5,3.5,99,0.00,,,0.00,Rainwise IP-100,2013-08-13 04:06:00,
2013-08-13 00:11:00,68.7,68.0,29.93,SW,225,2.8,6.0,99,0.00,,,0.00,Rainwise IP-100,2013-08-13 04:11:00,
2013-08-13 00:16:00,68.8,68.0,29.93,SSW,202,1.4,4.0,99,0.00,,,0.00,Rainwise IP-100,2013-08-13 04:16:00,
2013-08-13 00:21:00,68.8,68.0,29.93,WSW,247,2.6,4.0,99,0.00,,,0.00,Rainwise IP-100,2013-08-13 04:21:00,
2013-08-13 00:26:00,68.8,68.0,29.93,West,270,4.4,4.4,99,0.00,,,0.00,Rainwise IP-100,2013-08-13 04:26:00,
2013-08-13 00:31:00,68.8,68.0,29.92,SW,225,4.4,5.0,99,0.00,,,0.00,Rainwise IP-100,2013-08-13 04:31:00,
2013-08-13 00:36:00,68.7,68.0,29.92,WSW,247,2.1,5.0,99,0.00,,,0.00,Rainwise IP-100,2013-08-13 04:36:00,
2013-08-13 00:41:00,68.6,68.0,29.92,SSE,157,1.4,4.0,99,0.00,,,0.00,Rainwise IP-100,2013-08-13 04:41:00,
2013-08-13 00:46:00,68.5,68.0,29.92,WSW,247,0.0,2.0,99,0.00,,,0.00,Rainwise IP-100,2013-08-13 04:46:00,
2013-08-13 00:51:00,68.6,68.0,29.92,West,270,1.4,3.0,99,0.00,,,0.00,Rainwise IP-100,2013-08-13 04:51:00,
2013-08-13 00:56:00,68.6,68.0,29.92,WNW,292,0.0,5.0,99,0.00,,,0.00,Rainwise IP-100,2013-08-13 04:56:00,
2013-08-13 01:01:00,68.6,68.0,29.92,WSW,247,0.0,2.0,99,0.00,,,0.00,Rainwise IP-100,2013-08-13 05:01:00,
2013-08-13 01:06:00,68.6,68.0,29.92,WSW,247,1.9,2.0,99,0.00,,,0.00,Rainwise IP-100,2013-08-13 05:06:00,
2013-08-13 01:11:00,68.5,68.0,29.92,WSW,247,2.1,4.0,99,0.00,,,0.00,Rainwise IP-100,2013-08-13 05:11:00,
2013-08-13 01:16:00,68.5,68.0,29.92,SW,225,2.6,4.0,99,0.00,,,0.00,Rainwise IP-100,2013-08-13 05:16:00,
2013-08-13 01:21:00,68.6,68.0,29.92,WSW,247,1.9,4.0,99,0.00,,,0.00,Rainwise IP-100,2013-08-13 05:21:00,
2013-08-13 01:26:00,68.6,68.0,29.91,SW,225,0.0,5.0,99,0.00,,,0.00,Rainwise IP-100,2013-08-13 05:26:00,
2013-08-13 01:31:00,68.5,68.0,29.92,SSW,202,1.6,2.0,99,0.00,,,0.00,Rainwise IP-100,2013-08-13 05:31:00,
2013-08-13 01:36:00,68.4,68.0,29.91,SW,225,0.0,2.0,99,0.00,,,0.00,Rainwise IP-100,2013-08-13 05:36:00,
2013-08-13 01:41:00,68.5,68.0,29.91,WSW,247,1.9,2.0,99,0.00,,,0.00,Rainwise IP-100,2013-08-13 05:41:00,
2013-08-13 01:46:00,68.5,68.0,29.91,WNW,292,1.9,2.0,99,0.00,,,0.00,Rainwise IP-100,2013-08-13 05:46:00,
2013-08-13 01:51:00,68.4,68.0,29.91,WSW,247,2.1,4.0,99,0.00,,,0.00,Rainwise IP-100,2013-08-13 05:51:00,
2013-08-13 01:56:00,68.3,67.0,29.91,West,270,2.8,5.0,99,0.00,,,0.00,Rainwise IP-100,2013-08-13 05:56:00,
2013-08-13 02:01:00,68.2,67.0,29.91,WSW,247,3.3,5.0,99,0.00,,,0.00,Rainwise IP-100,2013-08-13 06:01:00,
2013-08-13 02:06:00,68.1,67.0,29.91,WSW,247,2.3,5.0,99,0.00,,,0.00,Rainwise IP-100,2013-08-13 06:06:00,
2013-08-13 02:11:00,68.0,67.0,29.91,West,270,3.7,5.0,99,0.00,,,0.00,Rainwise IP-100,2013-08-13 06:11:00,
2013-08-13 02:16:00,68.0,67.0,29.90,WSW,247,2.1,4.0,99,0.00,,,0.00,Rainwise IP-100,2013-08-13 06:16:00,
2013-08-13 02:21:00,68.0,67.0,29.91,West,270,1.2,4.0,99,0.00,,,0.00,Rainwise IP-100,2013-08-13 06:21:00,
2013-08-13 02:26:00,68.0,67.0,29.90,WSW,247,1.6,3.0,99,0.00,,,0.00,Rainwise IP-100,2013-08-13 06:26:00,
2013-08-13 02:31:00,67.9,67.0,29.90,West,270,2.3,3.0,99,0.00,,,0.00,Rainwise IP-100,2013-08-13 06:31:00,
2013-08-13 02:36:00,67.8,67.0,29.89,West,270,0.0,2.0,99,0.00,,,0.00,Rainwise IP-100,2013-08-13 06:36:00,
2013-08-13 02:41:00,67.7,67.0,29.89,West,270,0.0,0.0,99,0.00,,,0.00,Rainwise IP-100,2013-08-13 06:41:00,
2013-08-13 02:46:00,67.4,67.0,29.90,West,270,1.9,1.9,99,0.00,,,0.00,Rainwise IP-100,2013-08-13 06:46:00,
2013-08-13 02:51:00,67.3,66.0,29.90,WSW,247,1.6,3.0,99,0.00,,,0.00,Rainwise IP-100,2013-08-13 06:51:00,
2013-08-13 02:56:00,67.2,67.0,29.90,SW,225,0.0,2.0,100,0.00,,,0.00,Rainwise IP-100,2013-08-13 06:56:00,
2013-08-13 03:01:00,67.1,67.0,29.90,WSW,247,0.0,3.0,100,0.00,,,0.00,Rainwise IP-100,2013-08-13 07:01:00,
2013-08-13 03:06:00,67.2,67.0,29.90,WSW,247,1.6,2.0,100,0.00,,,0.00,Rainwise IP-100,2013-08-13 07:06:00,
2013-08-13 03:11:00,67.3,67.0,29.89,WSW,247,3.3,3.3,100,0.00,,,0.00,Rainwise IP-100,2013-08-13 07:11:00,
2013-08-13 03:16:00,67.3,67.0,29.89,WSW,247,1.6,3.0,100,0.00,,,0.00,Rainwise IP-100,2013-08-13 07:16:00,
2013-08-13 03:21:00,67.3,67.0,29.89,WSW,247,1.6,2.0,100,0.00,,,0.00,Rainwise IP-100,2013-08-13 07:21:00,
2013-08-13 03:26:00,67.3,67.0,29.89,WSW,247,2.1,2.1,100,0.00,,,0.00,Rainwise IP-100,2013-08-13 07:26:00,
2013-08-13 03:31:00,67.3,67.0,29.89,WSW,247,2.3,3.0,100,0.00,,,0.00,Rainwise IP-100,2013-08-13 07:31:00,
2013-08-13 03:36:00,67.2,67.0,29.89,WSW,247,2.3,2.3,100,0.00,,,0.00,Rainwise IP-100,2013-08-13 07:36:00,
2013-08-13 03:41:00,67.3,67.0,29.89,WSW,247,1.9,3.0,100,0.00,,,0.00,Rainwise IP-100,2013-08-13 07:41:00,
2013-08-13 03:46:00,67.2,67.0,29.89,WSW,247,1.4,3.0,100,0.00,,,0.00,Rainwise IP-100,2013-08-13 07:46:00,
2013-08-13 03:51:00,67.1,67.0,29.89,WSW,247,0.0,2.0,100,0.00,,,0.00,Rainwise IP-100,2013-08-13 07:51:00,
2013-08-13 03:56:00,66.9,67.0,29.89,SSW,202,0.0,1.0,100,0.00,,,0.00,Rainwise IP-100,2013-08-13 07:56:00,
2013-08-13 04:01:00,67.0,67.0,29.89,SW,225,2.1,2.1,100,0.00,,,0.00,Rainwise IP-100,2013-08-13 08:01:00,
2013-08-13 04:06:00,67.1,67.0,29.88,SW,225,0.0,2.0,100,0.00,,,0.00,Rainwise IP-100,2013-08-13 08:06:00,
2013-08-13 04:11:00,67.2,67.0,29.88,SW,225,0.0,1.0,100,0.00,,,0.00,Rainwise IP-100,2013-08-13 08:11:00,
2013-08-13 04:16:00,67.2,67.0,29.88,SW,225,1.4,2.0,100,0.00,,,0.00,Rainwise IP-100,2013-08-13 08:16:00,
2013-08-13 04:21:00,67.3,67.0,29.88,SW,225,0.0,2.0,100,0.00,,,0.00,Rainwise IP-100,2013-08-13 08:21:00,
2013-08-13 04:26:00,67.4,67.0,29.88,SW,225,1.6,2.0,100,0.00,,,0.00,Rainwise IP-100,2013-08-13 08:26:00,
2013-08-13 04:31:00,67.4,67.0,29.89,WSW,247,2.1,3.0,100,0.00,,,0.00,Rainwise IP-100,2013-08-13 08:31:00,
2013-08-13 04:36:00,67.5,67.0,29.88,WSW,247,0.0,2.0,100,0.00,,,0.00,Rainwise IP-100,2013-08-13 08:36:00,
2013-08-13 04:41:00,67.4,67.0,29.89,WSW,247,0.0,1.0,100,0.00,,,0.00,Rainwise IP-100,2013-08-13 08:41:00,
2013-08-13 04:46:00,67.4,67.0,29.88,WSW,247,0.0,0.0,100,0.00,,,0.00,Rainwise IP-100,2013-08-13 08:46:00,
2013-08-13 04:51:00,67.4,67.0,29.88,WSW,247,0.0,0.0,100,0.00,,,0.00,Rainwise IP-100,2013-08-13 08:51:00,
2013-08-13 04:56:00,67.2,67.0,29.88,SSE,157,1.9,1.9,100,0.00,,,0.00,Rainwise IP-100,2013-08-13 08:56:00,
2013-08-13 05:01:00,66.9,67.0,29.87,SSE,157,2.6,2.6,100,0.00,,,0.00,Rainwise IP-100,2013-08-13 09:01:00,
2013-08-13 05:06:00,66.5,66.0,29.87,SSE,157,2.8,4.0,100,0.00,,,0.00,Rainwise IP-100,2013-08-13 09:06:00,
2013-08-13 05:11:00,66.3,66.0,29.88,SSE,157,2.6,4.0,100,0.00,,,0.00,Rainwise IP-100,2013-08-13 09:11:00,
2013-08-13 05:16:00,66.2,66.0,29.88,SE,135,1.9,3.0,100,0.00,,,0.00,Rainwise IP-100,2013-08-13 09:16:00,
2013-08-13 05:21:00,66.2,66.0,29.88,SSE,157,1.6,2.0,100,0.00,,,0.00,Rainwise IP-100,2013-08-13 09:21:00,
2013-08-13 05:26:00,66.2,66.0,29.88,SSE,157,1.9,2.0,100,0.00,,,0.00,Rainwise IP-100,2013-08-13 09:26:00,
2013-08-13 05:31:00,66.1,66.0,29.88,SSE,157,1.4,2.0,100,0.00,,,0.00,Rainwise IP-100,2013-08-13 09:31:00,
2013-08-13 05:36:00,66.1,66.0,29.88,SSE,157,1.4,2.0,100,0.00,,,0.00,Rainwise IP-100,2013-08-13 09:36:00,
2013-08-13 05:41:00,66.0,66.0,29.88,SSE,157,1.9,2.0,100,0.00,,,0.00,Rainwise IP-100,2013-08-13 09:41:00,
2013-08-13 05:46:00,65.9,66.0,29.88,SSE,157,2.8,3.0,100,0.00,,,0.00,Rainwise IP-100,2013-08-13 09:46:00,
2013-08-13 05:51:00,65.9,66.0,29.87,SE,135,2.3,3.0,100,0.00,,,0.00,Rainwise IP-100,2013-08-13 09:51:00,
2013-08-13 05:56:00,65.8,65.0,29.88,ESE,112,1.4,4.0,100,0.00,,,0.00,Rainwise IP-100,2013-08-13 09:56:00,
2013-08-13 06:01:00,65.8,65.0,29.87,SSE,157,1.4,4.0,100,0.00,,,0.00,Rainwise IP-100,2013-08-13 10:01:00,
2013-08-13 06:06:00,65.8,65.0,29.87,SSE,157,1.9,2.0,100,0.00,,,0.00,Rainwise IP-100,2013-08-13 10:06:00,
2013-08-13 06:11:00,65.9,66.0,29.87,SE,135,3.0,4.0,100,0.00,,,0.00,Rainwise IP-100,2013-08-13 10:11:00,
2013-08-13 06:16:00,66.0,66.0,29.88,ESE,112,2.1,4.0,100,0.00,,,0.00,Rainwise IP-100,2013-08-13 10:16:00,
2013-08-13 06:21:00,66.1,66.0,29.88,SSE,157,3.3,4.0,100,0.00,,,0.00,Rainwise IP-100,2013-08-13 10:21:00,
2013-08-13 06:26:00,66.2,66.0,29.87,SE,135,2.1,5.0,100,0.00,,,0.00,Rainwise IP-100,2013-08-13 10:26:00,
2013-08-13 06:31:00,66.2,66.0,29.88,SSE,157,1.9,4.0,100,0.00,,,0.00,Rainwise IP-100,2013-08-13 10:31:00,
2013-08-13 06:36:00,66.2,66.0,29.87,SE,135,2.1,4.0,100,0.00,,,0.00,Rainwise IP-100,2013-08-13 10:36:00,
2013-08-13 06:41:00,66.2,66.0,29.87,ESE,112,3.5,4.0,100,0.00,,,0.00,Rainwise IP-100,2013-08-13 10:41:00,
2013-08-13 06:46:00,66.2,66.0,29.87,SE,135,4.0,4.0,100,0.00,,,0.00,Rainwise IP-100,2013-08-13 10:46:00,
2013-08-13 06:51:00,66.2,66.0,29.87,ESE,112,2.6,4.0,100,0.00,,,0.00,Rainwise IP-100,2013-08-13 10:51:00,
2013-08-13 06:56:00,66.3,66.0,29.87,ESE,112,2.1,5.0,100,0.00,,,0.00,Rainwise IP-100,2013-08-13 10:56:00,
2013-08-13 07:01:00,66.4,66.0,29.88,SSE,157,2.6,5.0,100,0.00,,,0.00,Rainwise IP-100,2013-08-13 11:01:00,
2013-08-13 07:06:00,66.6,66.0,29.87,SE,135,2.1,5.0,100,0.00,,,0.00,Rainwise IP-100,2013-08-13 11:06:00,
2013-08-13 07:11:00,66.8,66.0,29.87,SE,135,3.3,5.0,100,0.00,,,0.00,Rainwise IP-100,2013-08-13 11:11:00,
2013-08-13 07:16:00,67.0,67.0,29.87,SSE,157,2.6,5.0,100,0.00,,,0.00,Rainwise IP-100,2013-08-13 11:16:00,
2013-08-13 07:21:00,67.2,67.0,29.86,SE,135,3.0,5.0,100,0.00,,,0.00,Rainwise IP-100,2013-08-13 11:21:00,
2013-08-13 07:26:00,67.3,67.0,29.86,SE,135,2.3,6.0,100,0.00,,,0.00,Rainwise IP-100,2013-08-13 11:26:00,
2013-08-13 07:31:00,67.3,67.0,29.86,SE,135,2.6,5.0,100,0.00,,,0.00,Rainwise IP-100,2013-08-13 11:31:00,
2013-08-13 07:36:00,67.4,67.0,29.86,SE,135,1.4,7.0,100,0.00,,,0.00,Rainwise IP-100,2013-08-13 11:36:00,
2013-08-13 07:41:00,67.5,67.0,29.86,SSE,157,2.3,5.0,100,0.00,,,0.00,Rainwise IP-100,2013-08-13 11:41:00,
2013-08-13 07:46:00,67.7,67.0,29.86,ESE,112,2.1,5.0,100,0.00,,,0.00,Rainwise IP-100,2013-08-13 11:46:00,
2013-08-13 07:51:00,67.9,68.0,29.86,ESE,112,4.2,7.0,100,0.00,,,0.00,Rainwise IP-100,2013-08-13 11:51:00,
2013-08-13 07:56:00,68.0,68.0,29.86,South,180,1.4,6.0,100,0.00,,,0.00,Rainwise IP-100,2013-08-13 11:56:00,
2013-08-13 08:01:00,68.2,68.0,29.86,ESE,112,3.3,6.0,100,0.00,,,0.00,Rainwise IP-100,2013-08-13 12:01:00,
2013-08-13 08:06:00,68.6,68.0,29.86,SSE,157,2.6,4.0,100,0.00,,,0.00,Rainwise IP-100,2013-08-13 12:06:00,
2013-08-13 08:11:00,68.7,68.0,29.86,SSE,157,2.8,5.0,100,0.00,,,0.00,Rainwise IP-100,2013-08-13 12:11:00,
2013-08-13 08:16:00,68.8,68.0,29.86,SSE,157,2.6,5.0,100,0.00,,,0.00,Rainwise IP-100,2013-08-13 12:16:00,
2013-08-13 08:21:00,69.2,69.0,29.85,SE,135,3.7,5.0,100,0.00,,,0.00,Rainwise IP-100,2013-08-13 12:21:00,
2013-08-13 08:26:00,69.5,69.0,29.85,ESE,112,2.6,5.0,100,0.00,,,0.00,Rainwise IP-100,2013-08-13 12:26:00,
2013-08-13 08:31:00,69.5,69.0,29.85,SSE,157,1.9,5.0,100,0.00,,,0.00,Rainwise IP-100,2013-08-13 12:31:00,
2013-08-13 08:36:00,69.7,69.0,29.85,SE,135,2.6,5.0,100,0.00,,,0.00,Rainwise IP-100,2013-08-13 12:36:00,
2013-08-13 08:41:00,69.9,70.0,29.85,ESE,112,0.0,6.0,100,0.00,,,0.00,Rainwise IP-100,2013-08-13 12:41:00,
2013-08-13 08:46:00,69.8,69.0,29.85,SE,135,0.0,7.0,100,0.00,,,0.00,Rainwise IP-100,2013-08-13 12:46:00,
2013-08-13 08:51:00,69.6,69.0,29.85,SE,135,3.5,4.0,100,0.00,,,0.00,Rainwise IP-100,2013-08-13 12:51:00,
2013-08-13 08:56:00,69.5,69.0,29.84,ESE,112,0.0,7.0,100,0.00,,,0.00,Rainwise IP-100,2013-08-13 12:56:00,
2013-08-13 09:01:00,69.4,69.0,29.84,SE,135,0.0,3.0,100,0.00,,,0.00,Rainwise IP-100,2013-08-13 13:01:00,
2013-08-13 09:06:00,69.4,69.0,29.84,SSE,157,0.0,3.0,100,0.00,,,0.00,Rainwise IP-100,2013-08-13 13:06:00,
2013-08-13 09:11:00,69.3,69.0,29.85,SSE,157,0.0,5.0,100,0.00,,,0.00,Rainwise IP-100,2013-08-13 13:11:00,
2013-08-13 09:16:00,69.3,69.0,29.84,SSE,157,0.0,5.0,100,0.00,,,0.00,Rainwise IP-100,2013-08-13 13:16:00,
2013-08-13 09:21:00,69.1,69.0,29.84,East,90,1.4,8.0,100,0.00,,,0.00,Rainwise IP-100,2013-08-13 13:21:00,
2013-08-13 09:26:00,68.9,69.0,29.84,SE,135,3.3,5.0,100,0.00,,,0.00,Rainwise IP-100,2013-08-13 13:26:00,
2013-08-13 09:31:00,68.8,68.0,29.85,SE,135,3.3,6.0,100,0.00,,,0.00,Rainwise IP-100,2013-08-13 13:31:00,
2013-08-13 09:36:00,68.8,68.0,29.84,SSE,157,2.6,5.0,100,0.00,,,0.00,Rainwise IP-100,2013-08-13 13:36:00,
2013-08-13 09:41:00,68.8,68.0,29.84,SE,135,2.1,3.0,100,0.00,,,0.00,Rainwise IP-100,2013-08-13 13:41:00,
2013-08-13 09:46:00,68.9,69.0,29.84,ESE,112,1.2,3.0,100,0.00,,,0.00,Rainwise IP-100,2013-08-13 13:46:00,
2013-08-13 09:51:00,68.9,69.0,29.84,SE,135,0.0,8.0,100,0.00,,,0.00,Rainwise IP-100,2013-08-13 13:51:00,
2013-08-13 09:56:00,69.0,69.0,29.84,SSE,157,4.9,4.9,100,0.00,,,0.00,Rainwise IP-100,2013-08-13 13:56:00,
2013-08-13 10:01:00,69.0,68.0,29.84,South,180,1.4,6.0,99,0.00,,,0.00,Rainwise IP-100,2013-08-13 14:01:00,
2013-08-13 10:06:00,69.1,68.0,29.84,SSE,157,2.6,5.0,99,0.00,,,0.00,Rainwise IP-100,2013-08-13 14:06:00,
2013-08-13 10:11:00,69.2,69.0,29.84,ESE,112,2.6,8.0,99,0.00,,,0.00,Rainwise IP-100,2013-08-13 14:11:00,
2013-08-13 10:16:00,69.3,69.0,29.84,SE,135,4.4,6.0,99,0.00,,,0.00,Rainwise IP-100,2013-08-13 14:16:00,
2013-08-13 10:21:00,69.4,69.0,29.84,SSW,202,0.0,5.0,99,0.00,,,0.00,Rainwise IP-100,2013-08-13 14:21:00,
2013-08-13 10:26:00,69.6,69.0,29.84,South,180,1.2,4.0,99,0.00,,,0.00,Rainwise IP-100,2013-08-13 14:26:00,
2013-08-13 10:31:00,69.7,69.0,29.85,SSE,157,0.0,5.0,99,0.00,,,0.00,Rainwise IP-100,2013-08-13 14:31:00,
2013-08-13 10:36:00,69.8,69.0,29.85,SSW,202,0.0,4.0,98,0.00,,,0.00,Rainwise IP-100,2013-08-13 14:36:00,
2013-08-13 10:41:00,70.0,69.0,29.85,SSW,202,1.2,3.0,98,0.00,,,0.00,Rainwise IP-100,2013-08-13 14:41:00,
2013-08-13 10:46:00,70.1,69.0,29.85,SSW,202,1.4,4.0,98,0.00,,,0.00,Rainwise IP-100,2013-08-13 14:46:00,
2013-08-13 10:51:00,70.2,69.0,29.85,SSW,202,0.0,4.0,97,0.00,,,0.00,Rainwise IP-100,2013-08-13 14:51:00,
2013-08-13 10:56:00,70.3,69.0,29.84,SSW,202,1.6,4.0,97,0.00,,,0.00,Rainwise IP-100,2013-08-13 14:56:00,
2013-08-13 11:01:00,70.4,69.0,29.84,SSE,157,3.3,3.3,97,0.00,,,0.00,Rainwise IP-100,2013-08-13 15:01:00,
2013-08-13 11:06:00,70.6,69.0,29.84,West,270,3.0,3.0,96,0.00,,,0.00,Rainwise IP-100,2013-08-13 15:06:00,
2013-08-13 11:11:00,70.7,69.0,29.84,SW,225,2.3,4.0,96,0.00,,,0.00,Rainwise IP-100,2013-08-13 15:11:00,
2013-08-13 11:16:00,70.6,69.0,29.84,SW,225,1.2,4.0,95,0.00,,,0.00,Rainwise IP-100,2013-08-13 15:16:00,
2013-08-13 11:21:00,70.8,69.0,29.84,SW,225,2.1,3.0,95,0.00,,,0.00,Rainwise IP-100,2013-08-13 15:21:00,
2013-08-13 11:26:00,70.9,69.0,29.84,WSW,247,1.6,4.0,94,0.00,,,0.00,Rainwise IP-100,2013-08-13 15:26:00,
2013-08-13 11:31:00,70.8,69.0,29.84,SW,225,2.1,4.0,94,0.00,,,0.00,Rainwise IP-100,2013-08-13 15:31:00,
2013-08-13 11:36:00,70.7,68.0,29.84,SSW,202,1.4,6.0,93,0.00,,,0.00,Rainwise IP-100,2013-08-13 15:36:00,
2013-08-13 11:41:00,70.7,68.0,29.84,WSW,247,2.1,4.0,93,0.00,,,0.00,Rainwise IP-100,2013-08-13 15:41:00,
2013-08-13 11:46:00,70.7,68.0,29.84,SSE,157,0.0,3.0,93,0.00,,,0.00,Rainwise IP-100,2013-08-13 15:46:00,
2013-08-13 11:51:00,70.8,68.0,29.84,SSE,157,2.1,3.0,93,0.00,,,0.00,Rainwise IP-100,2013-08-13 15:51:00,
2013-08-13 11:56:00,70.8,69.0,29.84,SSW,202,0.0,4.0,94,0.00,,,0.00,Rainwise IP-100,2013-08-13 15:56:00,
2013-08-13 12:01:00,70.8,69.0,29.84,SSE,157,0.0,4.0,94,0.00,,,0.00,Rainwise IP-100,2013-08-13 16:01:00,
2013-08-13 12:06:00,70.8,69.0,29.84,SSW,202,1.4,3.0,94,0.00,,,0.00,Rainwise IP-100,2013-08-13 16:06:00,
2013-08-13 12:11:00,70.6,69.0,29.84,South,180,1.4,4.0,94,0.00,,,0.00,Rainwise IP-100,2013-08-13 16:11:00,
2013-08-13 12:16:00,70.4,69.0,29.84,SSW,202,1.2,4.0,94,0.00,,,0.00,Rainwise IP-100,2013-08-13 16:16:00,
2013-08-13 12:21:00,70.3,68.0,29.85,SSW,202,0.0,4.0,94,0.00,,,0.00,Rainwise IP-100,2013-08-13 16:21:00,
2013-08-13 12:26:00,70.2,68.0,29.84,SSW,202,0.0,5.0,95,0.00,,,0.00,Rainwise IP-100,2013-08-13 16:26:00,
2013-08-13 12:31:00,69.9,68.0,29.85,SSE,157,3.5,6.0,95,0.00,,,0.00,Rainwise IP-100,2013-08-13 16:31:00,
2013-08-13 12:36:00,69.7,68.0,29.85,SSW,202,1.6,5.0,95,0.00,,,0.00,Rainwise IP-100,2013-08-13 16:36:00,
2013-08-13 12:41:00,69.6,68.0,29.85,SSW,202,0.0,4.0,96,0.00,,,0.00,Rainwise IP-100,2013-08-13 16:41:00,
2013-08-13 12:46:00,69.7,68.0,29.85,SSE,157,0.0,3.0,96,0.06,,,0.01,Rainwise IP-100,2013-08-13 16:46:00,
2013-08-13 12:51:00,69.7,68.0,29.85,WSW,247,0.0,3.0,96,0.06,,,0.01,Rainwise IP-100,2013-08-13 16:51:00,
2013-08-13 12:56:00,69.6,69.0,29.85,ESE,112,0.0,2.0,97,0.00,,,0.01,Rainwise IP-100,2013-08-13 16:56:00,
2013-08-13 13:01:00,69.6,69.0,29.85,SSE,157,0.0,4.0,97,0.00,,,0.01,Rainwise IP-100,2013-08-13 17:01:00,
2013-08-13 13:06:00,69.6,69.0,29.85,SSW,202,1.2,3.0,97,0.06,,,0.02,Rainwise IP-100,2013-08-13 17:06:00,
2013-08-13 13:12:00,69.5,69.0,29.84,SSE,157,3.5,4.0,97,0.12,,,0.03,Rainwise IP-100,2013-08-13 17:12:00,
2013-08-13 13:17:00,69.4,68.0,29.84,SSW,202,2.8,4.0,97,0.06,,,0.03,Rainwise IP-100,2013-08-13 17:17:00,
2013-08-13 13:22:00,69.3,69.0,29.83,ESE,112,2.1,4.0,98,0.06,,,0.04,Rainwise IP-100,2013-08-13 17:22:00,
2013-08-13 13:27:00,69.2,69.0,29.83,ESE,112,2.6,5.0,98,0.06,,,0.04,Rainwise IP-100,2013-08-13 17:27:00,
2013-08-13 13:32:00,69.1,68.0,29.83,SE,135,0.0,6.0,98,0.06,,,0.05,Rainwise IP-100,2013-08-13 17:32:00,
2013-08-13 13:37:00,69.0,68.0,29.82,SE,135,2.8,4.0,98,0.06,,,0.05,Rainwise IP-100,2013-08-13 17:37:00,
2013-08-13 13:42:00,69.0,68.0,29.82,SSE,157,2.3,3.0,98,0.00,,,0.05,Rainwise IP-100,2013-08-13 17:42:00,
2013-08-13 13:47:00,68.8,68.0,29.82,SSE,157,2.3,6.0,98,0.00,,,0.05,Rainwise IP-100,2013-08-13 17:47:00,
2013-08-13 13:52:00,68.5,68.0,29.81,SE,135,1.2,4.0,98,0.00,,,0.05,Rainwise IP-100,2013-08-13 17:52:00,
2013-08-13 13:57:00,68.1,67.0,29.80,East,90,3.3,5.0,98,0.06,,,0.06,Rainwise IP-100,2013-08-13 17:57:00,
2013-08-13 14:02:00,68.0,67.0,29.79,ESE,112,4.2,4.2,98,0.06,,,0.00,Rainwise IP-100,2013-08-13 18:02:00,
2013-08-13 14:07:00,68.0,67.0,29.78,East,90,2.8,5.0,98,0.00,,,0.01,Rainwise IP-100,2013-08-13 18:07:00,
2013-08-13 14:12:00,67.9,67.0,29.77,ENE,67,2.6,6.0,98,0.06,,,0.01,Rainwise IP-100,2013-08-13 18:12:00,
2013-08-13 14:17:00,67.7,67.0,29.76,East,90,3.3,6.0,98,0.06,,,0.01,Rainwise IP-100,2013-08-13 18:17:00,
2013-08-13 14:22:00,67.5,67.0,29.77,ESE,112,3.0,6.0,98,0.00,,,0.01,Rainwise IP-100,2013-08-13 18:22:00,
2013-08-13 14:27:00,67.3,66.0,29.78,East,90,2.3,6.0,98,0.00,,,0.01,Rainwise IP-100,2013-08-13 18:27:00,
2013-08-13 14:32:00,67.3,66.0,29.77,SSE,157,1.9,6.0,98,0.00,,,0.01,Rainwise IP-100,2013-08-13 18:32:00,
2013-08-13 14:37:00,67.2,66.0,29.77,ESE,112,2.8,5.0,98,0.00,,,0.01,Rainwise IP-100,2013-08-13 18:37:00,
2013-08-13 14:42:00,67.1,66.0,29.76,ESE,112,4.9,6.0,98,0.06,,,0.02,Rainwise IP-100,2013-08-13 18:42:00,
2013-08-13 14:47:00,67.1,66.0,29.77,ESE,112,3.7,8.0,98,0.06,,,0.02,Rainwise IP-100,2013-08-13 18:47:00,
2013-08-13 14:52:00,67.1,66.0,29.76,SE,135,2.6,6.0,98,0.00,,,0.02,Rainwise IP-100,2013-08-13 18:52:00,
2013-08-13 14:57:00,67.1,66.0,29.76,SE,135,3.7,7.0,98,0.00,,,0.02,Rainwise IP-100,2013-08-13 18:57:00,
2013-08-13 15:02:00,67.1,66.0,29.75,ESE,112,3.7,8.0,98,0.06,,,0.03,Rainwise IP-100,2013-08-13 19:02:00,
2013-08-13 15:07:00,67.1,66.0,29.74,ESE,112,1.9,9.0,99,0.06,,,0.03,Rainwise IP-100,2013-08-13 19:07:00,
2013-08-13 15:12:00,67.0,66.0,29.74,ESE,112,3.7,7.0,99,0.06,,,0.04,Rainwise IP-100,2013-08-13 19:12:00,
2013-08-13 15:17:00,66.8,66.0,29.74,ESE,112,0.0,7.0,99,0.06,,,0.04,Rainwise IP-100,2013-08-13 19:17:00,
2013-08-13 15:22:00,66.8,66.0,29.74,ESE,112,2.6,7.0,99,0.00,,,0.04,Rainwise IP-100,2013-08-13 19:22:00,
2013-08-13 15:27:00,66.9,66.0,29.74,SE,135,7.0,7.0,99,0.00,,,0.04,Rainwise IP-100,2013-08-13 19:27:00,
2013-08-13 15:32:00,66.9,66.0,29.72,East,90,5.8,8.0,99,0.00,,,0.04,Rainwise IP-100,2013-08-13 19:32:00,
2013-08-13 15:37:00,66.8,66.0,29.72,East,90,4.9,8.0,99,0.00,,,0.04,Rainwise IP-100,2013-08-13 19:37:00,
2013-08-13 15:42:00,66.8,66.0,29.71,East,90,3.5,8.0,99,0.00,,,0.04,Rainwise IP-100,2013-08-13 19:42:00,
2013-08-13 15:47:00,67.0,66.0,29.72,ESE,112,4.7,8.0,99,0.00,,,0.04,Rainwise IP-100,2013-08-13 19:47:00,
2013-08-13 15:52:00,67.0,66.0,29.72,ENE,67,3.5,6.0,99,0.00,,,0.04,Rainwise IP-100,2013-08-13 19:52:00,
2013-08-13 15:57:00,67.1,66.0,29.74,NE,45,2.3,6.0,99,0.00,,,0.04,Rainwise IP-100,2013-08-13 19:57:00,
2013-08-13 16:02:00,67.2,66.0,29.74,NE,45,1.9,3.0,99,0.00,,,0.04,Rainwise IP-100,2013-08-13 20:02:00,
2013-08-13 16:07:00,67.4,67.0,29.74,NE,45,0.0,2.0,99,0.00,,,0.04,Rainwise IP-100,2013-08-13 20:07:00,
2013-08-13 16:12:00,67.4,67.0,29.73,NE,45,1.9,2.0,99,0.00,,,0.04,Rainwise IP-100,2013-08-13 20:12:00,
2013-08-13 16:17:00,67.5,67.0,29.73,NE,45,3.3,3.3,99,0.00,,,0.04,Rainwise IP-100,2013-08-13 20:17:00,
2013-08-13 16:22:00,67.7,67.0,29.74,NNW,337,1.2,4.0,99,0.00,,,0.04,Rainwise IP-100,2013-08-13 20:22:00,
2013-08-13 16:27:00,67.9,67.0,29.73,NNE,22,1.2,3.0,99,0.00,,,0.04,Rainwise IP-100,2013-08-13 20:27:00,
2013-08-13 16:32:00,68.1,67.0,29.73,ENE,67,0.0,3.0,99,0.00,,,0.04,Rainwise IP-100,2013-08-13 20:32:00,
2013-08-13 16:37:00,68.2,67.0,29.73,NE,45,1.4,3.0,99,0.00,,,0.04,Rainwise IP-100,2013-08-13 20:37:00,
2013-08-13 16:42:00,68.2,67.0,29.72,East,90,2.6,4.0,99,0.00,,,0.04,Rainwise IP-100,2013-08-13 20:42:00,
2013-08-13 16:47:00,68.2,67.0,29.71,ESE,112,1.9,4.0,99,0.00,,,0.04,Rainwise IP-100,2013-08-13 20:47:00,
2013-08-13 16:52:00,68.2,67.0,29.71,East,90,4.7,4.7,99,0.00,,,0.04,Rainwise IP-100,2013-08-13 20:52:00,
2013-08-13 16:57:00,68.2,67.0,29.70,East,90,2.8,7.0,99,0.00,,,0.04,Rainwise IP-100,2013-08-13 20:57:00,
2013-08-13 17:02:00,68.2,67.0,29.71,ESE,112,4.4,7.0,99,0.00,,,0.04,Rainwise IP-100,2013-08-13 21:02:00,
2013-08-13 17:07:00,68.1,67.0,29.70,SSE,157,2.6,7.0,99,0.00,,,0.04,Rainwise IP-100,2013-08-13 21:07:00,
2013-08-13 17:12:00,68.0,67.0,29.70,ENE,67,0.0,7.0,99,0.00,,,0.04,Rainwise IP-100,2013-08-13 21:12:00,
2013-08-13 17:17:00,68.0,67.0,29.70,NNE,22,0.0,5.0,99,0.00,,,0.04,Rainwise IP-100,2013-08-13 21:17:00,
2013-08-13 17:22:00,68.0,67.0,29.70,ENE,67,2.8,6.0,99,0.00,,,0.04,Rainwise IP-100,2013-08-13 21:22:00,
2013-08-13 17:27:00,68.0,67.0,29.70,NNW,337,1.2,3.0,99,0.00,,,0.04,Rainwise IP-100,2013-08-13 21:27:00,
2013-08-13 17:32:00,68.2,67.0,29.70,NNW,337,0.0,1.0,99,0.00,,,0.04,Rainwise IP-100,2013-08-13 21:32:00,
2013-08-13 17:37:00,68.4,68.0,29.70,ENE,67,3.3,3.3,99,0.00,,,0.04,Rainwise IP-100,2013-08-13 21:37:00,
2013-08-13 17:42:00,68.5,68.0,29.69,ENE,67,3.0,4.0,99,0.00,,,0.04,Rainwise IP-100,2013-08-13 21:42:00,
2013-08-13 17:47:00,68.7,68.0,29.68,ENE,67,4.4,6.0,99,0.00,,,0.04,Rainwise IP-100,2013-08-13 21:47:00,
2013-08-13 17:52:00,68.8,68.0,29.69,ENE,67,0.0,6.0,99,0.00,,,0.04,Rainwise IP-100,2013-08-13 21:52:00,
2013-08-13 17:57:00,68.9,68.0,29.69,ENE,67,1.9,6.0,99,0.00,,,0.04,Rainwise IP-100,2013-08-13 21:57:00,
2013-08-13 18:02:00,69.0,68.0,29.69,ENE,67,0.0,3.0,99,0.00,,,0.04,Rainwise IP-100,2013-08-13 22:02:00,
2013-08-13 18:07:00,69.0,68.0,29.70,ENE,67,2.8,2.8,99,0.00,,,0.04,Rainwise IP-100,2013-08-13 22:07:00,
2013-08-13 18:12:00,68.9,68.0,29.69,ENE,67,3.0,3.0,99,0.00,,,0.04,Rainwise IP-100,2013-08-13 22:12:00,
2013-08-13 18:17:00,68.8,68.0,29.69,NE,45,1.9,3.0,98,0.00,,,0.04,Rainwise IP-100,2013-08-13 22:17:00,
2013-08-13 18:22:00,68.8,68.0,29.69,NE,45,2.1,3.0,98,0.00,,,0.04,Rainwise IP-100,2013-08-13 22:22:00,
2013-08-13 18:27:00,68.7,68.0,29.70,ENE,67,2.8,2.8,98,0.00,,,0.04,Rainwise IP-100,2013-08-13 22:27:00,
2013-08-13 18:32:00,68.7,67.0,29.69,ENE,67,0.0,2.0,97,0.00,,,0.04,Rainwise IP-100,2013-08-13 22:32:00,
2013-08-13 18:37:00,68.8,67.0,29.69,ENE,67,0.0,1.0,97,0.00,,,0.04,Rainwise IP-100,2013-08-13 22:37:00,
2013-08-13 18:42:00,68.7,67.0,29.68,ESE,112,2.8,2.8,97,0.00,,,0.04,Rainwise IP-100,2013-08-13 22:42:00,
2013-08-13 18:47:00,68.6,67.0,29.68,East,90,0.0,4.0,97,0.00,,,0.04,Rainwise IP-100,2013-08-13 22:47:00,
2013-08-13 18:52:00,68.6,67.0,29.68,East,90,0.0,2.0,97,0.00,,,0.04,Rainwise IP-100,2013-08-13 22:52:00,
2013-08-13 18:57:00,68.6,68.0,29.68,ENE,67,1.2,2.0,98,0.00,,,0.04,Rainwise IP-100,2013-08-13 22:57:00,
2013-08-13 19:02:00,68.6,68.0,29.69,ENE,67,1.2,4.0,98,0.00,,,0.04,Rainwise IP-100,2013-08-13 23:02:00,
2013-08-13 19:07:00,68.5,68.0,29.69,ENE,67,0.0,3.0,98,0.00,,,0.04,Rainwise IP-100,2013-08-13 23:07:00,
2013-08-13 19:12:00,68.5,68.0,29.69,NNE,22,2.3,2.3,98,0.00,,,0.04,Rainwise IP-100,2013-08-13 23:12:00,
2013-08-13 19:17:00,68.5,68.0,29.70,NNE,22,1.4,2.0,98,0.00,,,0.04,Rainwise IP-100,2013-08-13 23:17:00,
2013-08-13 19:22:00,68.5,68.0,29.70,NNE,22,0.0,1.0,98,0.00,,,0.04,Rainwise IP-100,2013-08-13 23:22:00,
2013-08-13 19:27:00,68.5,68.0,29.70,NNE,22,0.0,0.0,98,0.00,,,0.04,Rainwise IP-100,2013-08-13 23:27:00,
2013-08-13 19:32:00,68.4,68.0,29.69,ENE,67,1.4,2.0,98,0.00,,,0.04,Rainwise IP-100,2013-08-13 23:32:00,
2013-08-13 19:37:00,68.3,67.0,29.70,NE,45,1.6,2.0,98,0.00,,,0.04,Rainwise IP-100,2013-08-13 23:37:00,
2013-08-13 19:42:00,68.3,67.0,29.70,NE,45,1.4,2.0,98,0.00,,,0.04,Rainwise IP-100,2013-08-13 23:42:00,
2013-08-13 19:47:00,68.3,67.0,29.70,NE,45,0.0,2.0,98,0.00,,,0.04,Rainwise IP-100,2013-08-13 23:47:00,
2013-08-13 19:52:00,68.2,67.0,29.70,NE,45,2.1,3.0,98,0.00,,,0.04,Rainwise IP-100,2013-08-13 23:52:00,
2013-08-13 19:57:00,68.2,67.0,29.70,NE,45,2.3,2.3,98,0.00,,,0.04,Rainwise IP-100,2013-08-13 23:57:00,
2013-08-13 20:02:00,68.2,67.0,29.70,NE,45,0.0,2.0,98,0.00,,,0.04,Rainwise IP-100,2013-08-14 00:02:00,
2013-08-13 20:07:00,68.2,67.0,29.70,NE,45,1.4,1.4,98,0.00,,,0.04,Rainwise IP-100,2013-08-14 00:07:00,
2013-08-13 20:12:00,68.1,67.0,29.70,NE,45,1.4,2.0,98,0.00,,,0.04,Rainwise IP-100,2013-08-14 00:12:00,
2013-08-13 20:17:00,68.1,67.0,29.71,NE,45,1.6,2.0,98,0.00,,,0.04,Rainwise IP-100,2013-08-14 00:17:00,
2013-08-13 20:22:00,68.1,67.0,29.71,NNW,337,0.0,2.0,98,0.00,,,0.04,Rainwise IP-100,2013-08-14 00:22:00,
2013-08-13 20:27:00,68.0,67.0,29.71,NNW,337,0.0,2.0,98,0.00,,,0.04,Rainwise IP-100,2013-08-14 00:27:00,
2013-08-13 20:32:00,68.0,67.0,29.71,NNW,337,0.0,0.0,98,0.00,,,0.04,Rainwise IP-100,2013-08-14 00:32:00,
2013-08-13 20:37:00,68.1,67.0,29.70,NE,45,2.6,2.6,98,0.00,,,0.04,Rainwise IP-100,2013-08-14 00:37:00,
2013-08-13 20:42:00,68.0,67.0,29.70,ENE,67,2.3,3.0,98,0.00,,,0.04,Rainwise IP-100,2013-08-14 00:42:00,
2013-08-13 20:47:00,68.0,67.0,29.70,ENE,67,2.8,3.0,98,0.00,,,0.04,Rainwise IP-100,2013-08-14 00:47:00,
2013-08-13 20:52:00,67.9,67.0,29.70,NE,45,0.0,4.0,98,0.00,,,0.04,Rainwise IP-100,2013-08-14 00:52:00,
2013-08-13 20:57:00,67.9,67.0,29.70,NNE,22,2.3,4.0,99,0.00,,,0.04,Rainwise IP-100,2013-08-14 00:57:00,
2013-08-13 21:02:00,67.7,67.0,29.70,NNE,22,5.4,5.4,99,0.00,,,0.04,Rainwise IP-100,2013-08-14 01:02:00,
2013-08-13 21:07:00,67.6,67.0,29.70,NE,45,1.9,5.0,99,0.00,,,0.04,Rainwise IP-100,2013-08-14 01:07:00,
2013-08-13 21:12:00,67.6,67.0,29.71,NE,45,2.6,3.0,99,0.00,,,0.04,Rainwise IP-100,2013-08-14 01:12:00,
2013-08-13 21:17:00,67.6,67.0,29.71,ENE,67,1.4,5.0,99,0.00,,,0.04,Rainwise IP-100,2013-08-14 01:17:00,
2013-08-13 21:22:00,67.5,67.0,29.71,NNE,22,4.0,4.0,98,0.00,,,0.04,Rainwise IP-100,2013-08-14 01:22:00,
2013-08-13 21:27:00,67.5,67.0,29.71,NE,45,2.6,4.0,98,0.00,,,0.04,Rainwise IP-100,2013-08-14 01:27:00,
2013-08-13 21:32:00,67.4,67.0,29.71,NNE,22,0.0,4.0,98,0.00,,,0.04,Rainwise IP-100,2013-08-14 01:32:00,
2013-08-13 21:37:00,67.3,66.0,29.71,NNE,22,1.6,3.0,98,0.00,,,0.04,Rainwise IP-100,2013-08-14 01:37:00,
2013-08-13 21:42:00,67.3,66.0,29.71,NNE,22,4.0,4.0,98,0.00,,,0.04,Rainwise IP-100,2013-08-14 01:42:00,
2013-08-13 21:47:00,67.3,66.0,29.71,NE,45,1.9,4.0,98,0.00,,,0.04,Rainwise IP-100,2013-08-14 01:47:00,
2013-08-13 21:51:00,67.3,66.0,29.71,ENE,67,2.3,4.0,98,0.00,,,0.04,Rainwise IP-100,2013-08-14 01:51:00,
2013-08-13 21:56:00,67.3,66.0,29.71,NE,45,1.6,3.0,98,0.00,,,0.04,Rainwise IP-100,2013-08-14 01:56:00,
2013-08-13 22:01:00,67.3,66.0,29.71,ENE,67,1.4,3.0,98,0.00,,,0.04,Rainwise IP-100,2013-08-14 02:01:00,
2013-08-13 22:06:00,67.3,66.0,29.71,NE,45,1.6,4.0,98,0.00,,,0.04,Rainwise IP-100,2013-08-14 02:06:00,
2013-08-13 22:11:00,67.2,66.0,29.70,NE,45,2.3,3.0,98,0.00,,,0.04,Rainwise IP-100,2013-08-14 02:11:00,
2013-08-13 22:16:00,67.1,66.0,29.70,NE,45,2.3,3.0,98,0.00,,,0.04,Rainwise IP-100,2013-08-14 02:16:00,
2013-08-13 22:21:00,67.0,66.0,29.69,NNE,22,2.6,3.0,98,0.00,,,0.04,Rainwise IP-100,2013-08-14 02:21:00,
2013-08-13 22:26:00,66.9,66.0,29.70,NE,45,1.9,4.0,98,0.00,,,0.04,Rainwise IP-100,2013-08-14 02:26:00,
2013-08-13 22:31:00,66.8,66.0,29.70,NNE,22,1.4,2.0,98,0.00,,,0.04,Rainwise IP-100,2013-08-14 02:31:00,
2013-08-13 22:36:00,66.7,66.0,29.70,North,360,1.6,2.0,98,0.00,,,0.04,Rainwise IP-100,2013-08-14 02:36:00,
2013-08-13 22:41:00,66.6,66.0,29.70,North,360,0.0,2.0,98,0.00,,,0.04,Rainwise IP-100,2013-08-14 02:41:00,
2013-08-13 22:46:00,66.5,66.0,29.70,North,360,1.2,2.0,98,0.00,,,0.04,Rainwise IP-100,2013-08-14 02:46:00,
2013-08-13 22:51:00,66.5,66.0,29.70,North,360,1.2,2.0,98,0.00,,,0.04,Rainwise IP-100,2013-08-14 02:51:00,
2013-08-13 22:56:00,66.4,66.0,29.69,North,360,1.6,1.6,98,0.00,,,0.04,Rainwise IP-100,2013-08-14 02:56:00,
2013-08-13 23:01:00,66.4,66.0,29.69,North,360,0.0,2.0,98,0.00,,,0.04,Rainwise IP-100,2013-08-14 03:01:00,
2013-08-13 23:06:00,66.3,66.0,29.69,North,360,1.4,1.4,99,0.00,,,0.04,Rainwise IP-100,2013-08-14 03:06:00,
2013-08-13 23:11:00,66.3,66.0,29.69,NNE,22,1.4,3.0,99,0.00,,,0.04,Rainwise IP-100,2013-08-14 03:11:00,
2013-08-13 23:16:00,66.3,66.0,29.69,NNE,22,1.6,2.0,99,0.00,,,0.04,Rainwise IP-100,2013-08-14 03:16:00,
2013-08-13 23:21:00,66.3,66.0,29.69,NE,45,0.0,3.0,99,0.00,,,0.04,Rainwise IP-100,2013-08-14 03:21:00,
2013-08-13 23:26:00,66.4,66.0,29.69,North,360,0.0,2.0,99,0.00,,,0.04,Rainwise IP-100,2013-08-14 03:26:00,
2013-08-13 23:31:00,66.4,66.0,29.69,North,360,0.0,1.0,99,0.00,,,0.04,Rainwise IP-100,2013-08-14 03:31:00,
2013-08-13 23:36:00,66.4,66.0,29.70,WNW,292,1.6,1.6,99,0.00,,,0.04,Rainwise IP-100,2013-08-14 03:36:00,
2013-08-13 23:41:00,66.5,66.0,29.70,NNW,337,0.0,2.0,99,0.00,,,0.04,Rainwise IP-100,2013-08-14 03:41:00,
2013-08-13 23:46:00,66.6,66.0,29.70,WNW,292,1.2,2.0,99,0.00,,,0.04,Rainwise IP-100,2013-08-14 03:46:00,
2013-08-13 23:51:00,66.7,66.0,29.70,West,270,2.6,3.0,99,0.00,,,0.04,Rainwise IP-100,2013-08-14 03:51:00,
2013-08-13 23:56:00,66.6,66.0,29.71,West,270,3.5,4.0,99,0.00,,,0.04,Rainwise IP-100,2013-08-14 03:56:00,